Time,TemperatureF,DewpointF,PressureIn,WindDirection,WindDirectionDegrees,WindSpeedMPH,WindSpeedGustMPH,Humidity,HourlyPrecipIn,Conditions,Clouds,dailyrainin,SoftwareType,DateUTC
2013-08-04 00:00:00,72.0,61.7,27.94,NW,304,0.0,1.6,70,-99.99,,,-99.99,WSDL version 420,2013-08-04 04:00:00,
2013-08-04 00:05:00,72.0,61.7,27.94,West,270,0.0,2.0,70,-99.99,,,-99.99,WSDL version 420,2013-08-04 04:05:00,
2013-08-04 00:10:00,71.8,61.5,27.94,West,270,0.0,2.0,70,-99.99,,,-99.99,WSDL version 420,2013-08-04 04:10:00,
2013-08-04 00:15:00,71.8,61.7,27.94,NW,308,0.0,1.6,71,-99.99,,,-99.99,WSDL version 420,2013-08-04 04:15:00,
2013-08-04 00:20:00,71.8,61.9,27.94,NNE,30,0.0,1.6,71,-99.99,,,-99.99,WSDL version 420,2013-08-04 04:20:00,
2013-08-04 00:25:00,71.8,61.9,27.94,NW,323,0.7,2.2,71,-99.99,,,-99.99,WSDL version 420,2013-08-04 04:25:00,
2013-08-04 00:30:00,71.9,62.0,27.94,North,356,0.9,2.2,71,-99.99,,,-99.99,WSDL version 420,2013-08-04 04:30:00,
2013-08-04 00:40:00,71.8,61.9,27.94,South,173,0.6,1.1,71,-99.99,,,-99.99,WSDL version 420,2013-08-04 04:40:00,
2013-08-04 00:45:00,71.8,62.1,27.94,West,264,0.0,1.6,72,-99.99,,,-99.99,WSDL version 420,2013-08-04 04:45:00,
2013-08-04 00:50:00,71.8,62.3,27.94,WNW,285,0.0,1.6,72,-99.99,,,-99.99,WSDL version 420,2013-08-04 04:50:00,
2013-08-04 00:55:00,71.8,62.3,27.94,NNW,330,0.6,1.1,72,-99.99,,,-99.99,WSDL version 420,2013-08-04 04:55:00,
2013-08-04 01:00:00,71.8,62.7,27.94,NNW,338,0.0,1.6,73,-99.99,,,-99.99,WSDL version 420,2013-08-04 05:00:00,
2013-08-04 01:05:00,71.7,62.6,27.94,East,90,0.9,2.2,73,-99.99,,,-99.99,WSDL version 420,2013-08-04 05:05:00,
2013-08-04 01:10:00,71.7,62.6,27.94,NE,38,1.0,2.7,73,-99.99,,,-99.99,WSDL version 420,2013-08-04 05:10:00,
2013-08-04 01:15:00,71.8,62.7,27.94,NNW,338,0.7,2.7,73,-99.99,,,-99.99,WSDL version 420,2013-08-04 05:15:00,
2013-08-04 01:20:00,71.8,62.8,27.94,NNW,338,1.5,2.9,74,-99.99,,,-99.99,WSDL version 420,2013-08-04 05:20:00,
2013-08-04 01:25:00,71.8,63.1,27.94,West,270,0.0,2.9,74,-99.99,,,-99.99,WSDL version 420,2013-08-04 05:25:00,
2013-08-04 01:30:00,71.6,62.9,27.94,West,281,0.0,2.0,74,-99.99,,,-99.99,WSDL version 420,2013-08-04 05:30:00,
2013-08-04 01:35:00,71.6,63.1,27.94,NNW,338,0.4,1.1,75,-99.99,,,-99.99,WSDL version 420,2013-08-04 05:35:00,
2013-08-04 01:40:00,71.5,63.2,27.94,NW,308,1.8,2.7,75,-99.99,,,-99.99,WSDL version 420,2013-08-04 05:40:00,
2013-08-04 01:45:00,71.5,63.4,27.94,West,263,0.4,2.7,76,-99.99,,,-99.99,WSDL version 420,2013-08-04 05:45:00,
2013-08-04 01:50:00,71.4,63.5,27.94,West,270,0.0,1.6,77,-99.99,,,-99.99,WSDL version 420,2013-08-04 05:50:00,
2013-08-04 01:55:00,71.2,63.8,27.94,South,185,1.7,2.2,78,-99.99,,,-99.99,WSDL version 420,2013-08-04 05:55:00,
2013-08-04 02:00:00,70.8,63.7,27.94,SSE,158,0.0,2.2,79,-99.99,,,-99.99,WSDL version 420,2013-08-04 06:00:00,
2013-08-04 02:05:00,70.5,63.7,27.94,SE,143,0.0,0.0,79,-99.99,,,-99.99,WSDL version 420,2013-08-04 06:05:00,
2013-08-04 02:10:00,70.6,63.8,27.94,WNW,293,0.0,0.0,79,-99.99,,,-99.99,WSDL version 420,2013-08-04 06:10:00,
2013-08-04 02:15:00,70.5,64.1,27.94,WNW,293,0.0,0.0,80,0.00,,,0.00,WSDL version 420,2013-08-04 06:15:00,
2013-08-04 02:20:00,70.5,64.1,27.94,WNW,293,0.0,0.0,80,-99.99,,,-99.99,WSDL version 420,2013-08-04 06:20:00,
2013-08-04 02:25:00,70.4,64.0,27.94,North,351,0.2,0.9,80,-99.99,,,-99.99,WSDL version 420,2013-08-04 06:25:00,
2013-08-04 02:30:00,70.3,64.0,27.94,NNE,17,0.2,0.9,81,-99.99,,,-99.99,WSDL version 420,2013-08-04 06:30:00,
2013-08-04 02:35:00,70.3,64.3,27.94,NNE,30,0.0,1.1,81,-99.99,,,-99.99,WSDL version 420,2013-08-04 06:35:00,
2013-08-04 02:40:00,70.3,64.3,27.94,WSW,248,0.0,1.1,81,0.00,,,0.00,WSDL version 420,2013-08-04 06:40:00,
2013-08-04 02:45:00,70.3,64.3,27.94,WSW,248,0.0,0.0,81,-99.99,,,-99.99,WSDL version 420,2013-08-04 06:45:00,
2013-08-04 02:50:00,70.3,64.3,27.94,WSW,248,0.0,0.0,81,-99.99,,,-99.99,WSDL version 420,2013-08-04 06:50:00,
2013-08-04 02:55:00,70.3,64.2,27.94,SSE,152,0.0,0.0,81,0.00,,,0.00,WSDL version 420,2013-08-04 06:55:00,
2013-08-04 03:00:00,70.2,64.1,27.94,East,90,0.0,0.0,81,-99.99,,,-99.99,WSDL version 420,2013-08-04 07:00:00,
2013-08-04 03:05:00,70.2,64.1,27.94,WSW,248,0.0,0.0,81,0.00,,,0.00,WSDL version 420,2013-08-04 07:05:00,
2013-08-04 03:10:00,70.0,64.1,27.94,WSW,248,0.0,0.0,82,-99.99,,,-99.99,WSDL version 420,2013-08-04 07:10:00,
2013-08-04 03:15:00,70.0,64.3,27.94,WSW,248,0.0,0.0,82,0.00,,,0.00,WSDL version 420,2013-08-04 07:15:00,
2013-08-04 03:20:00,70.0,64.3,27.94,WSW,248,0.0,0.0,82,-99.99,,,-99.99,WSDL version 420,2013-08-04 07:20:00,
2013-08-04 03:25:00,69.8,64.1,27.91,SW,236,0.0,0.0,82,0.00,,,0.00,WSDL version 420,2013-08-04 07:25:00,
2013-08-04 03:30:00,69.8,64.3,27.91,NW,323,0.0,0.0,83,0.00,,,0.00,WSDL version 420,2013-08-04 07:30:00,
2013-08-04 03:35:00,69.9,64.6,27.91,NNE,23,0.0,0.0,83,-99.99,,,-99.99,WSDL version 420,2013-08-04 07:35:00,
2013-08-04 03:40:00,69.8,64.5,27.91,NNE,23,0.0,0.0,83,0.00,,,0.00,WSDL version 420,2013-08-04 07:40:00,
2013-08-04 03:45:00,69.8,64.5,27.91,NNE,23,0.0,0.0,83,-99.99,,,-99.99,WSDL version 420,2013-08-04 07:45:00,
2013-08-04 03:50:00,69.8,64.5,27.91,NNE,23,0.0,0.0,83,0.00,,,0.00,WSDL version 420,2013-08-04 07:50:00,
2013-08-04 03:55:00,69.8,64.5,27.94,NNE,23,0.0,0.0,83,-99.99,,,-99.99,WSDL version 420,2013-08-04 07:55:00,
2013-08-04 04:00:00,69.7,64.5,27.94,NNE,23,0.0,0.0,83,0.00,,,0.00,WSDL version 420,2013-08-04 08:00:00,
2013-08-04 04:05:00,69.6,64.3,27.94,NNE,23,0.0,0.0,83,0.00,,,0.00,WSDL version 420,2013-08-04 08:05:00,
2013-08-04 04:10:00,69.4,64.2,27.94,NNE,23,0.0,0.0,83,0.00,,,0.00,WSDL version 420,2013-08-04 08:10:00,
2013-08-04 04:15:00,69.4,64.1,27.94,NNE,23,0.0,0.0,83,0.00,,,0.00,WSDL version 420,2013-08-04 08:15:00,
2013-08-04 04:20:00,69.3,64.2,27.94,NNE,23,0.0,0.0,84,0.00,,,0.00,WSDL version 420,2013-08-04 08:20:00,
2013-08-04 04:25:00,69.2,64.3,27.94,SE,144,0.0,0.0,84,-99.99,,,-99.99,WSDL version 420,2013-08-04 08:25:00,
2013-08-04 04:30:00,69.1,64.2,27.94,South,173,0.0,0.0,84,0.00,,,0.00,WSDL version 420,2013-08-04 08:30:00,
2013-08-04 04:35:00,69.1,64.2,27.94,ESE,113,0.0,0.9,84,0.00,,,0.00,WSDL version 420,2013-08-04 08:35:00,
2013-08-04 04:40:00,69.0,64.0,27.94,ESE,113,0.0,0.9,83,0.00,,,0.00,WSDL version 420,2013-08-04 08:40:00,
2013-08-04 04:45:00,68.9,63.6,27.94,ESE,113,0.0,0.0,83,0.00,,,0.00,WSDL version 420,2013-08-04 08:45:00,
2013-08-04 04:50:00,68.9,63.6,27.94,ESE,113,0.0,0.0,83,0.00,,,0.00,WSDL version 420,2013-08-04 08:50:00,
2013-08-04 04:55:00,68.8,63.7,27.94,ESE,113,0.0,0.0,84,0.00,,,0.00,WSDL version 420,2013-08-04 08:55:00,
2013-08-04 05:00:00,68.7,63.8,27.94,ESE,113,0.0,0.0,84,0.00,,,0.00,WSDL version 420,2013-08-04 09:00:00,
2013-08-04 05:05:00,68.5,63.7,27.94,ESE,113,0.0,0.0,84,0.00,,,0.00,WSDL version 420,2013-08-04 09:05:00,
2013-08-04 05:10:00,68.7,63.8,27.94,ENE,68,0.0,0.0,84,0.00,,,0.00,WSDL version 420,2013-08-04 09:10:00,
2013-08-04 05:15:00,68.6,63.7,27.94,East,98,0.0,0.0,84,0.00,,,0.00,WSDL version 420,2013-08-04 09:15:00,
2013-08-04 05:20:00,68.4,63.6,27.94,ESE,113,0.0,0.0,84,0.00,,,0.00,WSDL version 420,2013-08-04 09:20:00,
2013-08-04 05:25:00,68.4,63.5,27.94,ESE,113,0.0,0.0,84,0.00,,,0.00,WSDL version 420,2013-08-04 09:25:00,
2013-08-04 05:30:00,68.4,63.5,27.94,ESE,113,0.0,0.0,84,-99.99,,,-99.99,WSDL version 420,2013-08-04 09:30:00,
2013-08-04 05:35:00,68.3,63.4,27.94,ESE,113,0.0,0.0,84,0.00,,,0.00,WSDL version 420,2013-08-04 09:35:00,
2013-08-04 05:40:00,68.2,63.3,27.94,East,98,0.0,0.0,84,0.00,,,0.00,WSDL version 420,2013-08-04 09:40:00,
2013-08-04 05:45:00,68.0,63.1,27.94,NE,45,0.0,0.0,84,0.00,,,0.00,WSDL version 420,2013-08-04 09:45:00,
2013-08-04 05:50:00,68.0,63.1,27.94,NE,45,0.0,0.0,84,0.00,,,0.00,WSDL version 420,2013-08-04 09:50:00,
2013-08-04 05:55:00,68.0,63.1,27.94,NNW,338,0.0,0.0,84,-99.99,,,-99.99,WSDL version 420,2013-08-04 09:55:00,
2013-08-04 06:00:00,68.0,63.1,27.94,NNW,338,0.0,0.0,84,0.00,,,0.00,WSDL version 420,2013-08-04 10:00:00,
2013-08-04 06:05:00,68.0,63.1,27.94,NNW,338,0.0,0.0,84,0.00,,,0.00,WSDL version 420,2013-08-04 10:05:00,
2013-08-04 06:10:00,68.0,63.1,27.94,NNW,338,0.0,0.0,84,0.00,,,0.00,WSDL version 420,2013-08-04 10:10:00,
2013-08-04 06:15:00,67.9,63.0,27.94,NNW,338,0.0,0.0,84,0.00,,,0.00,WSDL version 420,2013-08-04 10:15:00,
2013-08-04 06:20:00,68.0,63.1,27.94,NNW,338,0.0,0.0,84,0.00,,,0.00,WSDL version 420,2013-08-04 10:20:00,
2013-08-04 06:25:00,67.9,63.3,27.94,NNW,338,0.0,0.0,86,0.00,,,0.00,WSDL version 420,2013-08-04 10:25:00,
2013-08-04 06:30:00,67.8,63.3,27.94,NNW,338,0.0,0.0,86,0.00,,,0.00,WSDL version 420,2013-08-04 10:30:00,
2013-08-04 06:35:00,67.7,63.2,27.94,NNW,338,0.0,0.0,86,0.00,,,0.00,WSDL version 420,2013-08-04 10:35:00,
2013-08-04 06:40:00,67.6,63.2,27.94,NNW,338,0.0,0.0,86,-99.99,,,-99.99,WSDL version 420,2013-08-04 10:40:00,
2013-08-04 06:45:00,67.6,63.1,27.94,NNW,338,0.0,0.0,86,0.00,,,0.00,WSDL version 420,2013-08-04 10:45:00,
2013-08-04 06:50:00,67.6,63.2,27.94,NNW,338,0.0,0.0,86,0.00,,,0.00,WSDL version 420,2013-08-04 10:50:00,
2013-08-04 06:55:00,67.6,63.1,27.94,NNW,338,0.0,0.0,86,0.00,,,0.00,WSDL version 420,2013-08-04 10:55:00,
2013-08-04 07:00:00,67.6,63.1,27.94,NNW,338,0.0,0.0,86,0.00,,,0.00,WSDL version 420,2013-08-04 11:00:00,
2013-08-04 07:05:00,67.5,63.0,27.94,NNW,338,0.0,0.0,86,0.00,,,0.00,WSDL version 420,2013-08-04 11:05:00,
2013-08-04 07:10:00,67.5,63.0,27.96,NNW,338,0.0,0.0,86,-99.99,,,-99.99,WSDL version 420,2013-08-04 11:10:00,
2013-08-04 07:15:00,67.5,63.0,27.96,NNW,338,0.0,0.0,86,0.00,,,0.00,WSDL version 420,2013-08-04 11:15:00,
2013-08-04 07:20:00,67.4,62.9,27.96,NNW,338,0.0,0.0,86,0.00,,,0.00,WSDL version 420,2013-08-04 11:20:00,
2013-08-04 07:25:00,67.4,62.9,27.96,NNW,338,0.0,0.0,86,-99.99,,,-99.99,WSDL version 420,2013-08-04 11:25:00,
2013-08-04 07:30:00,67.6,63.1,27.96,NNW,338,0.0,0.0,86,-99.99,,,-99.99,WSDL version 420,2013-08-04 11:30:00,
2013-08-04 07:35:00,67.6,63.2,27.96,NNW,338,0.0,0.0,86,0.00,,,0.00,WSDL version 420,2013-08-04 11:35:00,
2013-08-04 07:40:00,67.6,63.2,27.96,NNW,338,0.0,0.0,86,-99.99,,,-99.99,WSDL version 420,2013-08-04 11:40:00,
2013-08-04 07:45:00,67.8,63.3,27.96,NNW,338,0.0,0.0,86,-99.99,,,-99.99,WSDL version 420,2013-08-04 11:45:00,
2013-08-04 07:50:00,67.9,63.4,27.96,NNW,338,0.0,0.0,86,-99.99,,,-99.99,WSDL version 420,2013-08-04 11:50:00,
2013-08-04 07:55:00,68.0,63.5,27.96,NNW,338,0.0,0.0,86,-99.99,,,-99.99,WSDL version 420,2013-08-04 11:55:00,
2013-08-04 08:00:00,68.0,63.5,27.96,NNW,338,0.0,0.0,86,-99.99,,,-99.99,WSDL version 420,2013-08-04 12:00:00,
2013-08-04 08:05:00,68.0,63.5,27.96,ENE,73,0.5,2.0,86,-99.99,,,-99.99,WSDL version 420,2013-08-04 12:05:00,
2013-08-04 08:10:00,68.0,63.5,27.96,SW,218,0.6,2.0,86,-99.99,,,-99.99,WSDL version 420,2013-08-04 12:10:00,
2013-08-04 08:15:00,68.0,63.5,27.96,NNE,23,0.0,2.2,86,-99.99,,,-99.99,WSDL version 420,2013-08-04 12:15:00,
2013-08-04 08:20:00,67.9,63.4,27.96,SW,236,0.0,2.2,86,0.00,,,0.00,WSDL version 420,2013-08-04 12:20:00,
2013-08-04 08:25:00,68.0,63.5,27.96,WNW,293,0.0,0.9,86,-99.99,,,-99.99,WSDL version 420,2013-08-04 12:25:00,
2013-08-04 08:30:00,68.0,63.5,27.96,SSE,158,1.0,1.3,86,-99.99,,,-99.99,WSDL version 420,2013-08-04 12:30:00,
2013-08-04 08:40:00,68.2,63.3,27.96,NNE,23,0.4,3.4,84,0.00,,,0.00,WSDL version 420,2013-08-04 12:40:00,
2013-08-04 08:45:00,68.1,63.3,27.96,NW,315,0.0,3.1,84,-99.99,,,-99.99,WSDL version 420,2013-08-04 12:45:00,
2013-08-04 08:50:00,68.1,63.2,27.96,NW,315,0.0,0.0,84,-99.99,,,-99.99,WSDL version 420,2013-08-04 12:50:00,
2013-08-04 08:55:00,68.0,63.1,27.99,NE,38,0.5,1.6,84,-99.99,,,-99.99,WSDL version 420,2013-08-04 12:55:00,
2013-08-04 09:00:00,68.0,63.1,27.99,SW,225,0.0,1.6,84,-99.99,,,-99.99,WSDL version 420,2013-08-04 13:00:00,
2013-08-04 09:05:00,68.0,62.9,27.99,ESE,113,0.0,1.6,83,-99.99,,,-99.99,WSDL version 420,2013-08-04 13:05:00,
2013-08-04 09:10:00,68.1,62.8,27.99,NNE,23,0.6,2.5,83,-99.99,,,-99.99,WSDL version 420,2013-08-04 13:10:00,
2013-08-04 09:15:00,68.3,62.9,27.99,WNW,293,0.9,2.5,82,-99.99,,,-99.99,WSDL version 420,2013-08-04 13:15:00,
2013-08-04 09:20:00,68.4,62.7,27.99,NW,309,0.0,0.9,82,-99.99,,,-99.99,WSDL version 420,2013-08-04 13:20:00,
2013-08-04 09:25:00,68.5,62.9,27.99,West,278,0.0,3.4,82,-99.99,,,-99.99,WSDL version 420,2013-08-04 13:25:00,
2013-08-04 09:30:00,68.4,62.5,27.99,North,354,1.0,3.4,81,-99.99,,,-99.99,WSDL version 420,2013-08-04 13:30:00,
2013-08-04 09:35:00,68.5,62.3,27.99,WNW,293,0.4,2.9,80,-99.99,,,-99.99,WSDL version 420,2013-08-04 13:35:00,
2013-08-04 09:40:00,68.6,62.2,27.99,West,263,0.6,2.9,80,-99.99,,,-99.99,WSDL version 420,2013-08-04 13:40:00,
2013-08-04 09:45:00,68.7,62.1,27.99,NW,315,0.3,2.7,79,-99.99,,,-99.99,WSDL version 420,2013-08-04 13:45:00,
2013-08-04 09:50:00,68.9,61.8,27.99,WNW,293,0.2,2.2,78,-99.99,,,-99.99,WSDL version 420,2013-08-04 13:50:00,
2013-08-04 09:55:00,69.1,61.9,27.99,WSW,248,1.6,2.5,77,-99.99,,,-99.99,WSDL version 420,2013-08-04 13:55:00,
2013-08-04 10:00:00,69.3,61.6,27.99,SE,135,0.4,2.5,76,-99.99,,,-99.99,WSDL version 420,2013-08-04 14:00:00,
2013-08-04 10:05:00,69.3,61.3,27.99,SSW,203,1.4,2.2,75,-99.99,,,-99.99,WSDL version 420,2013-08-04 14:05:00,
2013-08-04 10:10:00,69.6,61.0,27.99,SW,233,0.0,2.7,74,-99.99,,,-99.99,WSDL version 420,2013-08-04 14:10:00,
2013-08-04 10:15:00,69.6,60.7,27.99,SW,225,0.0,2.7,73,-99.99,,,-99.99,WSDL version 420,2013-08-04 14:15:00,
2013-08-04 10:20:00,69.8,60.8,27.99,WSW,248,0.0,0.0,73,-99.99,,,-99.99,WSDL version 420,2013-08-04 14:20:00,
2013-08-04 10:25:00,69.8,60.4,27.99,West,270,0.0,0.0,72,-99.99,,,-99.99,WSDL version 420,2013-08-04 14:25:00,
2013-08-04 10:30:00,69.8,60.4,27.99,NNW,338,0.7,1.1,72,0.00,,,0.00,WSDL version 420,2013-08-04 14:30:00,
2013-08-04 10:35:00,69.8,60.1,27.99,ENE,68,0.4,1.3,71,-99.99,,,-99.99,WSDL version 420,2013-08-04 14:35:00,
2013-08-04 10:40:00,70.0,60.2,27.99,NNW,338,0.0,1.3,71,-99.99,,,-99.99,WSDL version 420,2013-08-04 14:40:00,
2013-08-04 10:45:00,70.0,59.8,27.99,NNE,23,0.0,2.2,70,-99.99,,,-99.99,WSDL version 420,2013-08-04 14:45:00,
2013-08-04 10:50:00,70.2,60.0,27.99,WSW,255,1.0,2.2,70,-99.99,,,-99.99,WSDL version 420,2013-08-04 14:50:00,
2013-08-04 10:55:00,70.4,60.2,27.99,WNW,293,1.0,1.6,70,-99.99,,,-99.99,WSDL version 420,2013-08-04 14:55:00,
2013-08-04 11:00:00,70.3,60.1,27.99,WNW,293,0.0,1.6,70,-99.99,,,-99.99,WSDL version 420,2013-08-04 15:00:00,
2013-08-04 11:05:00,70.3,59.7,27.99,WNW,293,0.0,1.6,69,-99.99,,,-99.99,WSDL version 420,2013-08-04 15:05:00,
2013-08-04 11:10:00,70.8,60.5,27.99,SSW,210,0.3,1.6,70,-99.99,,,-99.99,WSDL version 420,2013-08-04 15:10:00,
2013-08-04 11:15:00,71.2,60.7,27.99,South,171,1.0,1.6,70,-99.99,,,-99.99,WSDL version 420,2013-08-04 15:15:00,
2013-08-04 11:20:00,71.5,60.8,27.99,SSE,158,0.8,2.5,68,-99.99,,,-99.99,WSDL version 420,2013-08-04 15:20:00,
2013-08-04 11:25:00,71.7,60.3,27.99,West,264,0.4,2.5,67,-99.99,,,-99.99,WSDL version 420,2013-08-04 15:25:00,
2013-08-04 11:30:00,71.8,59.7,27.99,NW,315,0.0,2.2,65,-99.99,,,-99.99,WSDL version 420,2013-08-04 15:30:00,
2013-08-04 11:35:00,72.1,59.7,27.99,South,169,0.5,2.0,65,-99.99,,,-99.99,WSDL version 420,2013-08-04 15:35:00,
2013-08-04 11:40:00,72.3,59.4,27.99,SW,218,1.4,2.0,64,-99.99,,,-99.99,WSDL version 420,2013-08-04 15:40:00,
2013-08-04 11:45:00,72.6,59.7,27.99,WSW,257,1.5,2.9,64,-99.99,,,-99.99,WSDL version 420,2013-08-04 15:45:00,
2013-08-04 11:50:00,72.7,59.3,27.99,NNE,15,0.0,2.9,62,-99.99,,,-99.99,WSDL version 420,2013-08-04 15:50:00,
2013-08-04 11:55:00,73.0,59.1,27.99,West,281,1.3,2.7,62,-99.99,,,-99.99,WSDL version 420,2013-08-04 15:55:00,
2013-08-04 12:00:00,73.3,58.9,27.99,NW,323,0.7,2.7,60,-99.99,,,-99.99,WSDL version 420,2013-08-04 16:00:00,
2013-08-04 12:05:00,73.8,58.6,27.99,NNW,338,0.9,2.7,58,-99.99,,,-99.99,WSDL version 420,2013-08-04 16:05:00,
2013-08-04 12:10:00,73.8,57.8,27.99,West,270,1.3,2.9,57,-99.99,,,-99.99,WSDL version 420,2013-08-04 16:10:00,
2013-08-04 12:15:00,73.9,57.7,27.99,West,270,1.1,2.9,57,-99.99,,,-99.99,WSDL version 420,2013-08-04 16:15:00,
2013-08-04 12:20:00,74.1,58.4,27.99,SW,225,0.8,3.4,58,-99.99,,,-99.99,WSDL version 420,2013-08-04 16:20:00,
2013-08-04 12:25:00,74.2,58.0,27.99,NW,315,0.0,3.4,57,-99.99,,,-99.99,WSDL version 420,2013-08-04 16:25:00,
2013-08-04 12:30:00,74.0,57.3,27.99,South,188,1.6,2.2,56,-99.99,,,-99.99,WSDL version 420,2013-08-04 16:30:00,
2013-08-04 12:35:00,74.4,57.5,27.99,ESE,105,0.6,2.2,55,-99.99,,,-99.99,WSDL version 420,2013-08-04 16:35:00,
2013-08-04 12:40:00,74.8,57.6,27.99,West,278,0.6,2.9,55,-99.99,,,-99.99,WSDL version 420,2013-08-04 16:40:00,
2013-08-04 12:45:00,75.0,56.9,27.99,SW,233,1.3,2.9,53,-99.99,,,-99.99,WSDL version 420,2013-08-04 16:45:00,
2013-08-04 12:50:00,75.0,56.7,27.99,South,180,0.8,2.7,53,-99.99,,,-99.99,WSDL version 420,2013-08-04 16:50:00,
2013-08-04 12:55:00,75.2,57.3,27.99,WNW,285,0.7,2.5,53,-99.99,,,-99.99,WSDL version 420,2013-08-04 16:55:00,
2013-08-04 13:00:00,74.7,56.6,27.99,NW,304,0.0,2.5,53,-99.99,,,-99.99,WSDL version 420,2013-08-04 17:00:00,
2013-08-04 13:05:00,74.8,56.4,27.99,SSE,158,0.0,0.0,52,-99.99,,,-99.99,WSDL version 420,2013-08-04 17:05:00,
2013-08-04 13:10:00,74.7,55.9,27.99,North,360,0.0,1.3,51,-99.99,,,-99.99,WSDL version 420,2013-08-04 17:10:00,
2013-08-04 13:15:00,75.3,55.8,27.99,East,83,0.9,2.7,50,-99.99,,,-99.99,WSDL version 420,2013-08-04 17:15:00,
2013-08-04 13:20:00,75.3,55.4,27.99,SW,225,1.1,2.7,50,-99.99,,,-99.99,WSDL version 420,2013-08-04 17:20:00,
2013-08-04 13:25:00,75.9,56.7,27.99,SW,218,0.6,2.5,52,-99.99,,,-99.99,WSDL version 420,2013-08-04 17:25:00,
2013-08-04 13:30:00,76.2,56.7,27.99,NW,315,2.8,3.1,50,-99.99,,,-99.99,WSDL version 420,2013-08-04 17:30:00,
2013-08-04 13:40:00,77.1,55.9,27.96,South,188,1.3,3.1,48,-99.99,,,-99.99,WSDL version 420,2013-08-04 17:40:00,
2013-08-04 13:45:00,77.2,55.4,27.96,ESE,107,2.2,4.9,48,-99.99,,,-99.99,WSDL version 420,2013-08-04 17:45:00,
2013-08-04 13:50:00,77.5,56.3,27.96,WSW,255,2.4,4.9,48,-99.99,,,-99.99,WSDL version 420,2013-08-04 17:50:00,
2013-08-04 13:55:00,76.7,54.7,27.96,NE,45,1.0,3.4,46,-99.99,,,-99.99,WSDL version 420,2013-08-04 17:55:00,
2013-08-04 14:00:00,76.9,54.4,27.96,North,349,1.6,3.4,45,-99.99,,,-99.99,WSDL version 420,2013-08-04 18:00:00,
2013-08-04 14:05:00,77.8,55.6,27.96,ENE,62,1.1,3.1,47,-99.99,,,-99.99,WSDL version 420,2013-08-04 18:05:00,
2013-08-04 14:10:00,77.7,54.9,27.96,SW,218,1.0,3.1,46,-99.99,,,-99.99,WSDL version 420,2013-08-04 18:10:00,
2013-08-04 14:15:00,76.5,54.0,27.96,NNW,345,0.4,2.5,45,-99.99,,,-99.99,WSDL version 420,2013-08-04 18:15:00,
2013-08-04 14:20:00,76.3,53.8,27.96,West,278,0.4,1.3,46,-99.99,,,-99.99,WSDL version 420,2013-08-04 18:20:00,
2013-08-04 14:25:00,77.1,53.8,27.96,North,360,0.0,1.3,44,-99.99,,,-99.99,WSDL version 420,2013-08-04 18:25:00,
2013-08-04 14:30:00,77.4,54.2,27.96,West,263,1.0,2.2,45,-99.99,,,-99.99,WSDL version 420,2013-08-04 18:30:00,
2013-08-04 14:35:00,77.8,54.8,27.96,SSE,165,1.1,2.2,45,-99.99,,,-99.99,WSDL version 420,2013-08-04 18:35:00,
2013-08-04 14:40:00,78.1,55.2,27.96,North,349,2.5,2.5,46,-99.99,,,-99.99,WSDL version 420,2013-08-04 18:40:00,
2013-08-04 14:45:00,78.4,55.6,27.96,NW,315,0.7,2.7,46,-99.99,,,-99.99,WSDL version 420,2013-08-04 18:45:00,
2013-08-04 14:50:00,78.6,55.9,27.96,West,278,0.4,2.7,46,-99.99,,,-99.99,WSDL version 420,2013-08-04 18:50:00,
2013-08-04 14:55:00,79.2,55.8,27.96,South,188,1.9,2.9,44,-99.99,,,-99.99,WSDL version 420,2013-08-04 18:55:00,
2013-08-04 15:00:00,79.1,55.3,27.96,SE,128,1.3,2.9,44,-99.99,,,-99.99,WSDL version 420,2013-08-04 19:00:00,
2013-08-04 15:05:00,79.1,54.7,27.96,NE,53,2.5,3.4,43,-99.99,,,-99.99,WSDL version 420,2013-08-04 19:05:00,
2013-08-04 15:10:00,79.3,54.8,27.96,North,349,2.3,5.8,43,-99.99,,,-99.99,WSDL version 420,2013-08-04 19:10:00,
2013-08-04 15:15:00,79.4,54.7,27.96,WNW,293,1.3,5.8,42,-99.99,,,-99.99,WSDL version 420,2013-08-04 19:15:00,
2013-08-04 15:20:00,79.8,55.4,27.96,NNW,338,1.9,2.2,43,-99.99,,,-99.99,WSDL version 420,2013-08-04 19:20:00,
2013-08-04 15:25:00,79.6,54.9,27.96,North,11,2.0,3.1,42,-99.99,,,-99.99,WSDL version 420,2013-08-04 19:25:00,
2013-08-04 15:30:00,78.7,54.4,27.96,NW,315,2.7,3.6,43,-99.99,,,-99.99,WSDL version 420,2013-08-04 19:30:00,
2013-08-04 15:35:00,77.8,52.9,27.96,SSW,203,1.3,3.6,42,-99.99,,,-99.99,WSDL version 420,2013-08-04 19:35:00,
2013-08-04 15:40:00,77.4,52.8,27.96,SW,231,1.3,2.9,43,-99.99,,,-99.99,WSDL version 420,2013-08-04 19:40:00,
2013-08-04 15:45:00,77.3,53.3,27.96,NNE,23,1.2,2.5,43,-99.99,,,-99.99,WSDL version 420,2013-08-04 19:45:00,
2013-08-04 15:50:00,77.2,53.2,27.96,WNW,293,0.6,3.1,44,-99.99,,,-99.99,WSDL version 420,2013-08-04 19:50:00,
2013-08-04 15:55:00,77.6,54.0,27.96,NNW,338,1.7,3.1,44,-99.99,,,-99.99,WSDL version 420,2013-08-04 19:55:00,
2013-08-04 16:00:00,77.5,53.9,27.96,WNW,285,1.0,2.7,44,-99.99,,,-99.99,WSDL version 420,2013-08-04 20:00:00,
2013-08-04 16:05:00,77.2,53.2,27.96,NNW,338,0.4,2.7,44,-99.99,,,-99.99,WSDL version 420,2013-08-04 20:05:00,
2013-08-04 16:10:00,78.1,54.7,27.96,NE,41,1.7,3.1,45,-99.99,,,-99.99,WSDL version 420,2013-08-04 20:10:00,
2013-08-04 16:15:00,78.7,54.6,27.96,NNE,23,1.0,3.1,43,-99.99,,,-99.99,WSDL version 420,2013-08-04 20:15:00,
2013-08-04 16:20:00,78.5,54.2,27.96,WNW,293,0.0,2.5,43,-99.99,,,-99.99,WSDL version 420,2013-08-04 20:20:00,
2013-08-04 16:25:00,78.9,54.8,27.96,NW,315,1.8,2.5,44,-99.99,,,-99.99,WSDL version 420,2013-08-04 20:25:00,
2013-08-04 16:30:00,79.2,54.6,27.96,WNW,293,1.5,2.5,42,-99.99,,,-99.99,WSDL version 420,2013-08-04 20:30:00,
2013-08-04 16:35:00,79.4,54.8,27.96,NW,323,3.3,4.3,42,-99.99,,,-99.99,WSDL version 420,2013-08-04 20:35:00,
2013-08-04 16:40:00,79.5,54.7,27.96,NNW,338,1.4,4.3,41,-99.99,,,-99.99,WSDL version 420,2013-08-04 20:40:00,
2013-08-04 16:45:00,79.3,54.0,27.96,SSW,203,3.1,3.6,42,-99.99,,,-99.99,WSDL version 420,2013-08-04 20:45:00,
2013-08-04 16:50:00,79.5,54.2,27.96,West,263,0.4,3.6,42,-99.99,,,-99.99,WSDL version 420,2013-08-04 20:50:00,
2013-08-04 16:55:00,78.8,53.5,27.96,South,180,0.4,2.2,42,-99.99,,,-99.99,WSDL version 420,2013-08-04 20:55:00,
2013-08-04 17:00:00,78.0,53.7,27.96,South,173,0.0,2.2,43,-99.99,,,-99.99,WSDL version 420,2013-08-04 21:00:00,
2013-08-04 17:05:00,77.5,53.9,27.96,West,264,1.0,1.1,44,-99.99,,,-99.99,WSDL version 420,2013-08-04 21:05:00,
2013-08-04 17:10:00,77.2,53.7,27.96,NNW,330,0.9,1.3,44,-99.99,,,-99.99,WSDL version 420,2013-08-04 21:10:00,
2013-08-04 17:15:00,77.8,54.4,27.96,SE,141,0.4,1.6,44,-99.99,,,-99.99,WSDL version 420,2013-08-04 21:15:00,
2013-08-04 17:20:00,78.4,54.7,27.96,North,353,0.4,2.0,44,-99.99,,,-99.99,WSDL version 420,2013-08-04 21:20:00,
2013-08-04 17:25:00,78.3,54.2,27.96,NNE,32,1.0,2.9,43,-99.99,,,-99.99,WSDL version 420,2013-08-04 21:25:00,
2013-08-04 17:30:00,78.7,55.1,27.96,NW,308,0.7,2.9,44,-99.99,,,-99.99,WSDL version 420,2013-08-04 21:30:00,
2013-08-04 17:35:00,78.4,54.3,27.96,SSE,163,0.2,2.5,43,-99.99,,,-99.99,WSDL version 420,2013-08-04 21:35:00,
2013-08-04 17:40:00,78.1,53.6,27.96,NE,38,0.4,2.5,42,-99.99,,,-99.99,WSDL version 420,2013-08-04 21:40:00,
2013-08-04 17:45:00,78.3,54.4,27.96,NNE,15,1.0,1.6,43,-99.99,,,-99.99,WSDL version 420,2013-08-04 21:45:00,
2013-08-04 17:50:00,78.4,54.0,27.96,SW,218,0.6,2.0,43,-99.99,,,-99.99,WSDL version 420,2013-08-04 21:50:00,
2013-08-04 17:55:00,78.2,53.5,27.96,NW,324,0.0,2.5,42,-99.99,,,-99.99,WSDL version 420,2013-08-04 21:55:00,
2013-08-04 18:00:00,78.3,54.2,27.96,NNW,345,0.0,2.5,43,-99.99,,,-99.99,WSDL version 420,2013-08-04 22:00:00,
2013-08-04 18:05:00,78.0,53.9,27.96,SSW,203,1.3,2.2,44,-99.99,,,-99.99,WSDL version 420,2013-08-04 22:05:00,
2013-08-04 18:10:00,77.8,53.6,27.96,NW,323,0.9,2.0,43,-99.99,,,-99.99,WSDL version 420,2013-08-04 22:10:00,
2013-08-04 18:15:00,77.6,52.7,27.96,North,8,0.0,2.0,42,-99.99,,,-99.99,WSDL version 420,2013-08-04 22:15:00,
2013-08-04 18:20:00,77.7,53.5,27.96,NNW,338,0.3,1.3,43,-99.99,,,-99.99,WSDL version 420,2013-08-04 22:20:00,
2013-08-04 18:25:00,77.8,53.6,27.96,NNE,17,1.0,1.6,42,-99.99,,,-99.99,WSDL version 420,2013-08-04 22:25:00,
2013-08-04 18:30:00,77.7,53.3,27.96,West,259,0.4,1.6,43,-99.99,,,-99.99,WSDL version 420,2013-08-04 22:30:00,
2013-08-04 18:35:00,77.8,53.5,27.96,SW,233,0.7,1.6,43,-99.99,,,-99.99,WSDL version 420,2013-08-04 22:35:00,
2013-08-04 18:40:00,79.2,54.4,27.94,WSW,242,0.6,1.6,42,-99.99,,,-99.99,WSDL version 420,2013-08-04 22:40:00,
2013-08-04 18:45:00,78.4,53.6,27.94,SSE,165,0.0,1.1,43,-99.99,,,-99.99,WSDL version 420,2013-08-04 22:45:00,
2013-08-04 18:50:00,77.2,52.8,27.94,WSW,248,0.0,2.7,43,-99.99,,,-99.99,WSDL version 420,2013-08-04 22:50:00,
2013-08-04 18:55:00,76.8,52.9,27.94,SSE,158,0.0,2.7,44,-99.99,,,-99.99,WSDL version 420,2013-08-04 22:55:00,
2013-08-04 19:00:00,76.9,53.0,27.94,NE,53,0.7,2.5,43,-99.99,,,-99.99,WSDL version 420,2013-08-04 23:00:00,
2013-08-04 19:05:00,76.8,52.7,27.94,North,11,0.6,2.0,43,-99.99,,,-99.99,WSDL version 420,2013-08-04 23:05:00,
2013-08-04 19:10:00,76.5,53.0,27.94,WNW,300,0.0,1.3,44,-99.99,,,-99.99,WSDL version 420,2013-08-04 23:10:00,
2013-08-04 19:15:00,76.2,52.9,27.94,WNW,293,0.6,1.3,45,-99.99,,,-99.99,WSDL version 420,2013-08-04 23:15:00,
2013-08-04 19:20:00,75.8,53.0,27.94,WSW,240,0.0,1.3,45,-99.99,,,-99.99,WSDL version 420,2013-08-04 23:20:00,
2013-08-04 19:25:00,75.4,52.6,27.94,WNW,300,0.0,1.3,45,-99.99,,,-99.99,WSDL version 420,2013-08-04 23:25:00,
2013-08-04 19:30:00,75.3,52.5,27.94,West,263,0.6,0.9,45,-99.99,,,-99.99,WSDL version 420,2013-08-04 23:30:00,
2013-08-04 19:35:00,75.0,52.3,27.94,East,90,2.1,3.6,45,-99.99,,,-99.99,WSDL version 420,2013-08-04 23:35:00,
2013-08-04 19:40:00,74.9,52.8,27.96,West,278,1.3,3.6,46,-99.99,,,-99.99,WSDL version 420,2013-08-04 23:40:00,
2013-08-04 19:45:00,74.8,53.0,27.96,SE,143,1.6,2.9,47,-99.99,,,-99.99,WSDL version 420,2013-08-04 23:45:00,
2013-08-04 19:50:00,74.4,53.2,27.96,NW,308,0.3,2.9,48,-99.99,,,-99.99,WSDL version 420,2013-08-04 23:50:00,
2013-08-04 19:55:00,74.0,53.1,27.96,NE,56,0.3,1.6,48,-99.99,,,-99.99,WSDL version 420,2013-08-04 23:55:00,
2013-08-04 20:00:00,73.8,52.9,27.96,SSW,195,0.0,1.6,48,-99.99,,,-99.99,WSDL version 420,2013-08-05 00:00:00,
2013-08-04 20:05:00,73.5,53.2,27.96,WSW,248,0.0,1.6,49,-99.99,,,-99.99,WSDL version 420,2013-08-05 00:05:00,
2013-08-04 20:10:00,73.2,53.4,27.96,WSW,248,0.0,1.1,50,-99.99,,,-99.99,WSDL version 420,2013-08-05 00:10:00,
2013-08-04 20:15:00,73.0,53.6,27.96,West,270,0.0,0.0,51,-99.99,,,-99.99,WSDL version 420,2013-08-05 00:15:00,
2013-08-04 20:20:00,72.6,53.4,27.96,South,191,0.0,0.0,51,-99.99,,,-99.99,WSDL version 420,2013-08-05 00:20:00,
2013-08-04 20:25:00,72.5,53.7,27.96,SSW,203,0.0,0.0,52,-99.99,,,-99.99,WSDL version 420,2013-08-05 00:25:00,
2013-08-04 20:30:00,72.3,53.7,27.96,SW,218,0.3,0.9,52,-99.99,,,-99.99,WSDL version 420,2013-08-05 00:30:00,
2013-08-04 20:35:00,71.9,53.9,27.96,SSW,203,0.4,1.3,53,-99.99,,,-99.99,WSDL version 420,2013-08-05 00:35:00,
2013-08-04 20:40:00,71.7,53.6,27.96,South,188,0.9,1.6,53,-99.99,,,-99.99,WSDL version 420,2013-08-05 00:40:00,
2013-08-04 20:45:00,71.5,53.7,27.96,SE,135,0.4,1.6,54,-99.99,,,-99.99,WSDL version 420,2013-08-05 00:45:00,
2013-08-04 20:50:00,71.3,53.8,27.96,South,186,0.0,2.5,54,-99.99,,,-99.99,WSDL version 420,2013-08-05 00:50:00,
2013-08-04 20:55:00,71.2,54.3,27.96,South,173,1.0,2.9,55,-99.99,,,-99.99,WSDL version 420,2013-08-05 00:55:00,
2013-08-04 21:00:00,71.1,54.1,27.96,SSW,195,0.3,2.9,55,-99.99,,,-99.99,WSDL version 420,2013-08-05 01:00:00,
2013-08-04 21:05:00,70.9,53.9,27.96,SW,218,0.7,1.1,55,-99.99,,,-99.99,WSDL version 420,2013-08-05 01:05:00,
2013-08-04 21:10:00,70.9,53.9,27.96,SW,225,0.0,1.1,55,-99.99,,,-99.99,WSDL version 420,2013-08-05 01:10:00,
2013-08-04 21:15:00,70.6,53.7,27.96,SW,225,0.0,0.0,55,-99.99,,,-99.99,WSDL version 420,2013-08-05 01:15:00,
2013-08-04 21:20:00,70.5,54.0,27.96,SSW,203,0.9,0.9,56,-99.99,,,-99.99,WSDL version 420,2013-08-05 01:20:00,
2013-08-04 21:25:00,70.3,53.9,27.99,SSW,195,0.6,0.9,56,-99.99,,,-99.99,WSDL version 420,2013-08-05 01:25:00,
2013-08-04 21:30:00,70.2,53.8,27.99,SSE,152,0.2,0.9,56,-99.99,,,-99.99,WSDL version 420,2013-08-05 01:30:00,
2013-08-04 21:40:00,69.9,53.9,27.99,SE,135,0.0,2.5,57,-99.99,,,-99.99,WSDL version 420,2013-08-05 01:40:00,
2013-08-04 21:45:00,69.8,53.9,27.99,SW,225,0.0,0.9,57,-99.99,,,-99.99,WSDL version 420,2013-08-05 01:45:00,
2013-08-04 21:50:00,69.7,53.6,27.99,SSW,203,0.0,0.0,57,-99.99,,,-99.99,WSDL version 420,2013-08-05 01:50:00,
2013-08-04 21:55:00,69.4,53.5,27.99,SE,135,0.9,0.9,57,-99.99,,,-99.99,WSDL version 420,2013-08-05 01:55:00,
2013-08-04 22:00:00,69.1,53.3,27.99,ESE,113,0.0,0.9,57,-99.99,,,-99.99,WSDL version 420,2013-08-05 02:00:00,
2013-08-04 22:05:00,69.0,53.3,27.99,ENE,68,0.0,0.0,58,-99.99,,,-99.99,WSDL version 420,2013-08-05 02:05:00,
2013-08-04 22:10:00,68.8,53.4,27.99,NE,45,0.0,0.9,58,-99.99,,,-99.99,WSDL version 420,2013-08-05 02:10:00,
2013-08-04 22:15:00,68.9,53.5,27.99,NE,53,0.0,0.9,58,-99.99,,,-99.99,WSDL version 420,2013-08-05 02:15:00,
2013-08-04 22:20:00,68.9,53.8,27.99,SSW,203,0.0,0.0,59,-99.99,,,-99.99,WSDL version 420,2013-08-05 02:20:00,
2013-08-04 22:25:00,68.9,54.0,27.99,SSW,203,0.0,0.0,59,-99.99,,,-99.99,WSDL version 420,2013-08-05 02:25:00,
2013-08-04 22:30:00,68.9,54.2,27.99,SSW,203,0.0,0.0,59,-99.99,,,-99.99,WSDL version 420,2013-08-05 02:30:00,
2013-08-04 22:35:00,68.9,54.3,27.99,SSW,203,0.0,0.0,60,-99.99,,,-99.99,WSDL version 420,2013-08-05 02:35:00,
2013-08-04 22:40:00,68.9,54.5,28.02,SSW,203,0.0,0.0,60,-99.99,,,-99.99,WSDL version 420,2013-08-05 02:40:00,
2013-08-04 22:45:00,68.9,54.9,28.02,SSW,203,0.0,0.0,61,-99.99,,,-99.99,WSDL version 420,2013-08-05 02:45:00,
2013-08-04 22:50:00,68.7,54.2,28.02,East,90,0.0,0.0,60,-99.99,,,-99.99,WSDL version 420,2013-08-05 02:50:00,
2013-08-04 22:56:00,68.5,54.1,27.99,East,90,0.0,0.0,60,-99.99,,,-99.99,WSDL version 420,2013-08-05 02:56:00,
2013-08-04 23:01:00,68.5,54.1,27.99,East,98,0.0,0.0,60,-99.99,,,-99.99,WSDL version 420,2013-08-05 03:01:00,
2013-08-04 23:11:00,68.3,54.2,27.99,ENE,68,0.0,0.0,61,-99.99,,,-99.99,WSDL version 420,2013-08-05 03:11:00,
2013-08-04 23:16:00,68.1,54.1,27.99,ENE,68,0.0,0.0,61,-99.99,,,-99.99,WSDL version 420,2013-08-05 03:16:00,
2013-08-04 23:21:00,67.8,54.3,27.99,ENE,68,0.0,0.0,62,-99.99,,,-99.99,WSDL version 420,2013-08-05 03:21:00,
2013-08-04 23:26:00,67.8,54.3,27.99,ENE,68,0.0,0.0,62,-99.99,,,-99.99,WSDL version 420,2013-08-05 03:26:00,
2013-08-04 23:31:00,67.8,54.6,27.99,NE,45,0.0,0.0,63,-99.99,,,-99.99,WSDL version 420,2013-08-05 03:31:00,
2013-08-04 23:36:00,67.5,54.5,27.99,NE,45,0.0,0.0,63,-99.99,,,-99.99,WSDL version 420,2013-08-05 03:36:00,
2013-08-04 23:46:00,67.3,54.3,27.99,NE,45,0.0,0.0,63,-99.99,,,-99.99,WSDL version 420,2013-08-05 03:46:00,
2013-08-04 23:51:00,67.1,54.5,28.02,NE,45,0.0,0.0,64,-99.99,,,-99.99,WSDL version 420,2013-08-05 03:51:00,
2013-08-04 23:56:00,67.0,54.4,28.02,NE,45,0.0,0.0,64,-99.99,,,-99.99,WSDL version 420,2013-08-05 03:56:00,